This demonstration page uses our WeatherBlox Daily Observations layout. Learn more.

Left ArrowRight Arrow

Hourly Observations for December 14, 2020

Temp ( °F °C ) Dew Point ( °F °C ) Humidity (%) Winds ( mph kmh ) Pressure ( in mb ) Visibility ( mi km ) Precip ( " mm )
12:51 am 00:51 Clear 41 5 19 -7.2 41 41 ESE 10 17 30.2 1023 10 16.0934 0 0
1:51 am 01:51 Clear 41 5 18 -7.8 39 39 ESE 13 20 30.17 1022 10 16.0934 0 0
2:51 am 02:51 Clear 39 3.9 18 -7.8 43 43 SE 12 19 30.16 1021 10 16.0934 0 0
3:51 am 03:51 Clear 35 1.7 20 -6.7 54 54 SE 8 13 30.14 1021 10 16.0934 0 0
4:51 am 04:51 Clear 37 2.8 20 -6.7 50 50 ESE 12 19 30.12 1020 10 16.0934 0 0
5:51 am 05:51 Clear 36 2.2 19 -7.2 50 50 ESE 13 20 30.11 1020 10 16.0934 0 0
6:51 am 06:51 Clear 37 2.8 18 -7.8 46 46 E 12 19 30.11 1020 10 16.0934 0 0
7:51 am 07:51 Sunny 38 3.3 19 -7.2 46 46 ESE 13 20 30.11 1020 10 16.0934 0 0
8:51 am 08:51 Sunny 40 4.4 19 -7.2 43 43 ESE 9 15 30.1 1019 10 16.0934 0 0
9:51 am 09:51 Sunny 41 5 19 -7.2 41 41 SE 12 19 30.07 1018 10 16.0934 0 0
10:51 am 10:51 Sunny 44 6.7 19 -7.2 37 37 SSE 9 15 30.04 1017 10 16.0934 0 0
11:51 am 11:51 Sunny 47 8.3 20 -6.7 34 34 S 7 11 29.97 1015 10 16.0934 0 0
12:51 pm 12:51 Sunny 51 10.6 20 -6.7 29 29 ESE 7 11 29.9 1012 10 16.0934 0 0
1:51 pm 13:51 Sunny 55 12.8 19 -7.2 24 24 VRB 6 9 29.84 1010 10 16.0934 0 0
2:51 pm 14:51 Sunny 55 12.8 18 -7.8 23 23 SSE 5 7 29.82 1010 10 16.0934 0 0
3:51 pm 15:51 Sunny 55 12.8 17 -8.3 22 22 W 3 6 29.81 1009 10 16.0934 0 0
4:51 pm 16:51 Sunny 53 11.7 19 -7.2 26 26 NW 15 24 29.83 1010 10 16.0934 0 0
5:51 pm 17:51 Partly Cloudy 51 10.6 20 -6.7 29 29 NW 15 24 29.84 1010 10 16.0934 0 0
6:51 pm 18:51 Clear 50 10 25 -3.9 38 38 WNW 16 26 29.87 1012 10 16.0934 0 0
7:51 pm 19:51 Clear 48 8.9 18 -7.8 30 30 NW 14 22 29.91 1013 10 16.0934 0 0
8:51 pm 20:51 Clear 45 7.2 17 -8.3 33 33 NW 14 22 29.92 1013 10 16.0934 0 0
9:51 pm 21:51 Clear 43 6.1 18 -7.8 37 37 NNW 13 20 29.93 1014 10 16.0934 0 0
10:51 pm 22:51 Clear 44 6.7 18 -7.8 35 35 NNW 16 26 29.93 1013 10 16.0934 0 0
11:51 pm 23:51 Clear 45 7.2 19 -7.2 35 35 NNW 14 22 29.92 1013 10 16.0934 0 0

Powered by AerisWeather